Terug naar catalogus

STARLINK-37943

ActiefCommunicatieSSO
NORAD 69666·PAYLOAD·🇺🇸 United States

Gelanceerd Jun 21, 2026 vanaf Vandenberg Space Force Base

Loading…

Volgende Passages (komende 24 uur)

TLE

VersSource: CelesTrak SupGP

Epoch: Sep 15, 2026, 04:20 UTC

1 69666C 26143T   26258.18104167 -.00045228  00000+0 -14035-2 0  2585
2 69666  97.2839 301.4281 0000943  91.6108   0.4704 15.33474111    19

Volg STARLINK-37943 in realtime met AllMySat

Download on the App Store